Starlink 32819

operational
NORAD ID: 62995 Int'l Des: 2025-031 Owner: SPXS Country: US Constellation: starlink
LEOCIRCULAR

Über Starlink 32819

Beschreibung wird geladen...

Live-Position

3D-Globus wird geladen...

Nächste Überflüge

Höhenverlauf

Altitude vs Time

uPlot chart will show altitude changes over time

Zweizeiliger Elementsatz

1 62995U 25031Q 26035.19715649 .00040900 00000-0 14873-2 0 9998
2 62995 43.0030 332.4283 0001564 279.4581 80.6094 15.27586261 55976
Epoch: 4. Feb. 2026 • Age: 14 hours

Aktueller Status

Höhe 484.4 km
Geschwindigkeit 7.63 km/s
Subsatellitenpunkt 31.58°N, 51.03°W
Startdatum 11. Feb. 2025
Alter 0.9 years
Typ internet

Technische Details

Klassifizierung Payload
Masse 730.00 kg
Trockenmasse 700.00 kg
Gesamtmasse 730.00 kg
Länge 0.30 m
Durchmesser 4.10 m
Spannweite 29.00 m
Form Box + pan
Hersteller SPXS
Bus-Typ Starlink V2M
Phasenstatus In Orbit
Besitzer/Staat SPXS/US

Große Konstellationen

Loading constellations...